COSMOS 2499 DEB, 59373

Orbit data source: Space-Track

COSMOS 2499 DEB, 59373 is space debris in LEO originally from a launch on Fri, 23 May 2014 UTC launched from the Plesetsk Missile And Space Complex (PKMTR). Debris objects in space refer to the collection of defunct objects orbiting the Earth. Examples of debris include non-operational satellites, rocket bodies, and fragments generated from explosions, collisions, or faulty payload assembly.

Loading next visibility...
Identifier
59373, 2014-028BT
Orbit
LEO
Country
Flag of CISCIS
Related business
Manufacturer
TsNIIKhM
Mission
Spacecraft
Bus & Motor
Unknown
Mass
Unknown
Launch date (UTC)
2014-05-23 (12 years ago)
Launch vehicle
Unknown
Launch site
Plesetsk Missile And Space Complex (PKMTR)
Object type
Payload
Rocket body
Debris
Shape & HBR
Unknown shape, 0.1 m
Radar Cross Section
Small (<0.1 m²)

Expand to show TLE details & history
Last TLE update: 3 days ago

TLE from 3 days ago
0 COSMOS 2499 DEB
1 59373U 14028BT  25347.28564719  .00007712  00000-0  20231-1 0  9991
2 59373  82.5398 358.1769 0210331 324.6092  34.1215 13.08828334123270
Epoch: 2025-12-13T06:51Z
TLE epoch observation values (Epoch: 2025-12-13T06:51:19.917Z)
Latitude
-0.00005°
Longitude
173.1288°
Altitude
1,099.122 km
Speed
7.366 km/s
True Right ascension
23h 52m 42s
True Declination
0° 00' 00"
Sunlit
Object was in daylight at epoch
Visualization orbit readout
Latitude
Unknown
Longitude
Unknown
Altitude
Unknown
Speed
Unknown
Apparent Right ascension
Unknown
Apparent Declination
Unknown
Sunlit
N/A
Visualization observer readout
Local Sidereal Time
11:11:19
Azimuth
Unknown
Elevation
Unknown
Doppler factor
Unknown
Orbital elements
Apogee altitude
1,384.866 km
Perigee altitude
1,065.033 km
Semi-major axis
7,603.087 km
Eccentricity
0.02103
Inclination
82.5398°
RAAN
358.1769°
Arg. of periapsis
324.6092°
True anomaly
35.50343°
Mean anomaly
34.1215°
Eccentric anomaly
34.80943°
Mean motion
3.27385 °/min
Orbital period
109.96 mins
BSTAR
0.020231
Loading maneuver chart data...
Computing Atmospheric mass density...
Loading historical data...
Loading historical data...
Loading historical data...
Loading historical data...
Loading historical data...
Loading historical data...
Loading historical data...

Documentation

Showing up to 5 results
|